Temp
20 19 20 21 22 23 24 22 22 20 21 19 18 20 21 23 23 22 22 22 22 22 21 19 18 17 17 16 15 14 14 14 13 13 13 12 12 12 12 12 11 11 11 11
19 19 22 23 24 23 24 23 21 19 20 21 20 19 20 21 22 20 20 21 21 22 21 19 18 17 16 16 15 15 14 14 13 13 12 12 13 12 12 11 11 11 11 11
19 22 23 24 24 24 23 23 23 22 20 21 20 18 19 21 21 20 20 20 19 20 21 19 17 16 16 15 15 15 14 14 13 13 12 12 13 12 12 12 11 11 11 10
22 21 23 22 22 22 21 23 22 22 20 19 19 18 21 19 19 20 19 18 18 19 20 19 17 16 16 15 15 15 14 14 13 13 12 12 12 12 12 11 10 10 9 9
21 19 20 21 21 23 21 21 20 21 20 20 19 18 20 20 19 18 18 17 17 17 19 19 18 17 16 15 15 14 14 14 14 13 12 12 11 11 11 11 11 10 9 9
21 22 20 21 20 21 21 20 21 21 19 17 20 19 19 19 18 17 17 16 16 16 18 18 17 16 16 15 14 14 14 13 13 13 12 11 11 11 10 10 10 9 9 8
19 20 20 20 18 20 20 19 17 17 16 17 21 20 17 17 17 17 16 16 16 16 17 17 16 16 15 14 14 13 13 13 12 12 12 11 10 10 10 9 9 9 8 8
18 17 18 20 20 19 19 20 18 19 18 18 20 19 15 17 17 17 16 16 15 15 15 15 15 14 14 14 13 12 12 12 12 11 11 11 10 10 9 8 8 7 7 6
17 18 18 19 20 19 19 18 19 19 20 19 19 17 17 17 16 17 16 15 15 14 14 14 13 13 13 13 12 12 12 11 11 11 11 10 9 8 8 7 7 6 6 5
19 17 19 18 18 19 18 19 18 18 18 18 20 18 16 15 15 15 15 15 14 14 13 12 12 12 11 11 11 11 11 10 10 10 9 9 8 8 7 6 6 5 5 5
18 20 17 18 17 18 17 18 18 18 18 17 17 16 18 16 16 15 15 15 15 14 13 12 12 11 11 10 10 10 9 9 9 8 8 7 6 6 6 5 5 4 4 4
17 17 17 18 17 17 18 19 19 17 18 18 16 15 18 17 17 17 16 15 14 13 12 12 12 12 11 11 10 10 9 8 8 7 7 6 5 5 5 4 4 4 3 3
14 18 16 16 16 17 17 19 19 18 16 16 15 15 17 17 17 17 15 14 13 12 12 12 12 11 10 10 10 9 9 8 8 7 6 5 5 4 4 4 3 3 2 2
13 17 18 16 17 18 17 18 18 17 15 17 17 15 15 15 15 16 15 14 13 13 12 12 11 10 9 9 9 8 8 7 7 6 5 4 4 4 3 3 2 2 2 1
15 16 18 17 17 17 17 18 17 16 17 16 18 18 16 15 14 16 15 14 14 13 12 11 9 9 8 8 8 7 7 6 5 5 4 4 4 3 3 2 2 1 1 0
15 16 17 17 17 17 16 17 17 17 17 17 16 16 15 17 17 16 15 14 13 13 11 9 9 8 8 7 7 6 5 5 5 4 4 3 3 2 2 1 1 0 -0 -0
15 15 15 16 17 17 15 16 16 17 17 17 14 14 15 14 15 15 14 14 13 11 9 8 8 7 7 6 5 5 4 4 4 3 3 2 2 2 1 1 -0 -1 -1 -1
15 16 14 12 16 14 14 14 15 17 17 16 14 14 15 15 14 14 13 12 10 9 8 7 7 6 6 5 5 4 4 3 3 2 2 2 2 1 0 -0 -1 -1 -2 -2
13 15 13 12 13 16 14 14 15 15 16 15 15 13 14 13 12 12 11 9 8 7 7 6 6 5 5 5 4 4 3 2 2 2 2 2 1 0 -0 -1 -1 -1 -2 -2
13 13 13 12 11 11 15 14 14 14 12 15 16 14 13 12 8 7 9 8 7 7 6 5 5 4 4 4 4 3 2 2 2 2 2 1 0 -1 -1 -1 -1 -2 -2 -2
12 12 11 11 11 12 13 13 13 12 11 14 15 14 14 10 9 8 8 7 6 6 5 5 4 4 4 4 3 3 2 2 2 1 1 0 -0 -1 -1 -1 -1 -2 -2 -3
12 10 10 12 11 10 13 12 12 12 13 13 13 12 11 9 8 7 7 6 6 5 5 4 4 4 3 3 3 3 2 2 1 1 0 -0 -1 -1 -1 -1 -2 -2 -3 -4
11 14 13 11 11 13 13 13 12 12 12 11 11 10 10 8 7 7 6 6 5 5 4 4 4 3 3 3 3 2 2 1 1 0 -0 -1 -1 -2 -2 -2 -2 -4 -4 -4
14 13 11 12 14 12 13 13 12 11 11 10 10 9 8 8 7 6 6 6 5 5 4 4 4 3 3 3 2 2 2 1 0 -0 -1 -1 -2 -2 -2 -3 -4 -4 -4 -4
12 12 12 12 14 13 13 13 13 11 9 9 8 8 7 7 6 6 6 5 5 5 4 4 4 3 3 3 2 1 1 1 -0 -1 -1 -2 -2 -3 -3 -3 -4 -4 -4 -4
13 12 10 10 15 14 13 13 11 10 9 8 7 7 6 6 6 5 5 5 5 4 4 3 3 3 3 2 1 1 0 -0 -1 -1 -2 -3 -3 -3 -4 -4 -4 -4 -4 -4
Height
1479 1483 1482 1481 1482 1481 1478 1485 1493 1499 1497 1505 1508 1508 1508 1507 1507 1504 1505 1506 1507 1507 1512 1517 1520 1524 1527 1530 1531 1533 1535 1537 1538 1540 1541 1542 1544 1544 1544 1544 1544 1544 1543 1543
1480 1481 1472 1472 1471 1475 1474 1480 1493 1501 1502 1502 1504 1508 1504 1503 1503 1505 1504 1504 1505 1507 1508 1512 1517 1522 1526 1530 1531 1532 1534 1536 1537 1539 1540 1542 1543 1543 1543 1542 1542 1542 1541 1541
1475 1471 1467 1466 1466 1472 1475 1481 1482 1491 1497 1498 1502 1508 1499 1491 1496 1501 1504 1504 1505 1504 1506 1508 1513 1519 1524 1528 1530 1531 1533 1535 1537 1538 1539 1540 1540 1541 1541 1541 1541 1540 1538 1538
1464 1466 1463 1466 1471 1474 1484 1475 1481 1484 1499 1512 1499 1521 1491 1491 1498 1499 1504 1505 1505 1503 1504 1505 1510 1516 1521 1527 1529 1531 1532 1533 1535 1536 1537 1537 1538 1538 1539 1538 1537 1536 1535 1534
1466 1472 1471 1470 1472 1470 1481 1479 1486 1489 1497 1500 1506 1515 1496 1490 1498 1503 1503 1506 1506 1503 1504 1505 1509 1514 1520 1524 1527 1528 1531 1532 1533 1533 1534 1535 1535 1535 1536 1536 1534 1533 1531 1530
1469 1465 1470 1470 1475 1474 1479 1485 1486 1489 1497 1516 1494 1503 1500 1498 1500 1502 1504 1507 1506 1505 1505 1507 1510 1514 1519 1522 1525 1526 1528 1530 1531 1531 1531 1531 1530 1531 1530 1531 1530 1528 1527 1527
1473 1473 1475 1474 1482 1480 1481 1489 1510 1518 1520 1515 1483 1494 1503 1499 1500 1502 1505 1508 1507 1506 1507 1508 1511 1515 1518 1520 1522 1523 1524 1525 1526 1527 1527 1527 1526 1525 1524 1525 1524 1523 1522 1521
1479 1491 1480 1475 1477 1482 1486 1485 1497 1506 1507 1504 1490 1502 1508 1498 1501 1502 1506 1509 1509 1509 1509 1511 1513 1516 1518 1519 1520 1521 1521 1522 1523 1524 1524 1523 1522 1521 1520 1520 1519 1517 1517 1516
1479 1484 1480 1478 1478 1482 1484 1493 1484 1489 1482 1497 1490 1499 1498 1498 1500 1503 1507 1509 1510 1511 1511 1513 1514 1515 1516 1517 1518 1519 1520 1521 1521 1521 1520 1520 1519 1518 1516 1515 1514 1513 1512 1511
1469 1488 1479 1482 1481 1481 1482 1482 1496 1493 1506 1507 1484 1493 1500 1501 1501 1503 1507 1510 1511 1512 1513 1515 1516 1517 1517 1518 1518 1518 1519 1518 1518 1517 1516 1516 1515 1514 1513 1511 1510 1509 1506 1504
1472 1468 1489 1484 1484 1481 1487 1487 1486 1488 1489 1503 1508 1508 1489 1495 1497 1501 1505 1509 1511 1513 1515 1516 1516 1517 1518 1518 1518 1517 1517 1516 1515 1514 1513 1513 1512 1512 1510 1508 1506 1504 1502 1499
1476 1476 1483 1483 1482 1481 1480 1479 1480 1498 1494 1492 1501 1511 1489 1490 1494 1499 1504 1509 1511 1513 1515 1516 1517 1518 1518 1518 1517 1516 1515 1514 1512 1510 1509 1508 1507 1506 1505 1503 1501 1499 1495 1492
1482 1475 1490 1491 1488 1484 1484 1479 1480 1482 1490 1500 1511 1509 1491 1493 1496 1499 1503 1508 1511 1513 1515 1516 1516 1516 1516 1516 1515 1514 1513 1511 1509 1506 1505 1505 1503 1501 1500 1498 1495 1492 1488 1485
1482 1477 1479 1492 1485 1477 1484 1480 1482 1487 1502 1494 1494 1496 1496 1497 1498 1500 1503 1506 1509 1511 1513 1514 1514 1514 1514 1513 1512 1511 1510 1508 1506 1504 1502 1501 1500 1498 1494 1492 1489 1485 1482 1478
1483 1482 1477 1480 1481 1480 1480 1481 1485 1490 1488 1495 1487 1488 1492 1491 1493 1495 1499 1503 1506 1508 1510 1511 1512 1512 1512 1511 1509 1508 1506 1504 1503 1502 1501 1499 1496 1493 1489 1487 1483 1478 1475 1473
1483 1485 1480 1481 1482 1483 1485 1481 1482 1482 1484 1486 1486 1490 1486 1488 1489 1493 1496 1499 1503 1507 1507 1508 1510 1510 1509 1507 1505 1504 1503 1502 1500 1499 1497 1494 1491 1487 1485 1482 1477 1473 1470 1466
1484 1485 1487 1486 1482 1482 1488 1480 1479 1479 1479 1483 1493 1490 1488 1490 1491 1493 1497 1499 1502 1503 1505 1506 1507 1507 1506 1505 1503 1501 1499 1498 1496 1493 1492 1491 1487 1483 1480 1475 1471 1467 1463 1459
1483 1484 1488 1498 1484 1500 1484 1480 1478 1474 1479 1481 1486 1488 1490 1491 1493 1495 1496 1498 1499 1501 1504 1506 1506 1505 1503 1501 1499 1498 1496 1494 1493 1490 1489 1486 1482 1478 1474 1470 1466 1461 1457 1453
1485 1483 1493 1501 1496 1479 1485 1482 1481 1481 1482 1480 1483 1485 1489 1492 1493 1496 1495 1498 1501 1503 1503 1503 1502 1501 1500 1498 1497 1495 1493 1491 1489 1486 1485 1481 1477 1472 1468 1464 1460 1456 1452 1448
1486 1485 1489 1494 1505 1508 1480 1480 1481 1482 1495 1481 1481 1484 1489 1492 1498 1499 1498 1499 1501 1502 1502 1501 1500 1499 1498 1496 1494 1492 1490 1488 1486 1484 1479 1476 1472 1468 1463 1459 1455 1451 1447 1442
1489 1490 1497 1496 1502 1489 1478 1480 1482 1493 1494 1481 1483 1484 1486 1491 1494 1495 1497 1499 1500 1500 1499 1498 1497 1496 1495 1494 1491 1489 1486 1484 1482 1479 1475 1471 1467 1463 1459 1455 1451 1446 1441 1437
1486 1494 1497 1491 1495 1502 1478 1483 1486 1481 1480 1482 1484 1485 1487 1488 1492 1494 1496 1497 1498 1498 1497 1496 1495 1493 1492 1489 1487 1485 1482 1480 1477 1474 1470 1466 1463 1459 1455 1451 1446 1440 1436 1431
1488 1476 1481 1485 1485 1476 1476 1476 1476 1478 1480 1482 1484 1485 1486 1488 1492 1494 1496 1497 1496 1496 1496 1495 1493 1491 1489 1487 1484 1481 1478 1475 1472 1469 1465 1462 1458 1455 1451 1445 1440 1434 1430 1427
1473 1473 1479 1478 1469 1471 1473 1475 1476 1478 1480 1481 1482 1484 1486 1489 1492 1493 1494 1495 1495 1495 1493 1492 1489 1487 1485 1483 1480 1477 1474 1471 1467 1464 1461 1457 1454 1451 1446 1441 1436 1431 1426 1422
1472 1472 1473 1472 1468 1469 1470 1471 1473 1475 1478 1479 1482 1484 1487 1488 1490 1492 1493 1494 1494 1492 1490 1489 1486 1484 1481 1479 1476 1473 1470 1466 1463 1460 1457 1453 1450 1446 1440 1436 1432 1427 1424 1419
1463 1463 1470 1471 1461 1462 1465 1467 1471 1472 1475 1479 1481 1484 1485 1488 1490 1492 1493 1492 1491 1489 1488 1485 1483 1480 1478 1475 1472 1469 1466 1462 1459 1456 1453 1450 1446 1441 1436 1430 1426 1424 1419 1414
Wind_Speed
19 10 13 16 17 16 14 5 5 5 5 5 8 3 10 16 18 11 10 12 12 18 18 18 18 17 15 15 14 12 15 15 13 12 12 8 7 6 8 9 9 9 10 11
8 14 15 17 16 17 13 8 10 10 6 4 4 6 12 16 0 5 6 7 10 12 18 21 18 17 17 16 15 14 13 14 14 11 8 3 6 6 9 11 14 13 14 14
12 12 18 15 13 13 10 6 4 8 6 3 3 5 9 3 9 3 1 3 8 12 17 24 21 20 17 17 16 14 14 15 14 11 10 14 14 12 16 15 17 16 15 15
13 6 11 5 8 5 8 10 2 7 5 5 7 4 4 11 8 6 12 9 8 5 5 23 23 21 19 16 15 14 13 12 14 13 15 16 14 13 10 10 9 8 13 19
4 6 2 7 5 8 2 5 5 6 7 6 8 2 2 9 8 8 11 7 5 3 5 16 20 19 16 16 14 15 13 13 12 14 16 16 16 16 16 17 19 20 21 16
2 6 4 1 6 6 9 5 4 1 2 4 12 8 0 3 5 7 12 7 5 2 4 10 15 14 14 14 15 14 16 15 15 16 18 19 19 19 20 17 17 16 15 16
6 5 2 9 5 3 6 7 3 3 3 3 5 5 5 7 7 7 10 10 9 8 9 14 14 14 13 12 15 18 18 18 17 17 17 18 19 20 23 21 20 20 21 23
6 5 6 4 1 4 7 3 2 3 3 4 2 4 4 8 11 12 13 12 12 12 9 9 6 5 7 10 10 8 8 11 11 12 14 15 18 22 24 18 19 21 23 23
5 4 4 5 3 4 5 3 2 3 5 2 5 5 4 8 8 14 15 13 14 14 12 12 11 9 8 9 10 9 9 10 13 14 17 16 13 12 14 14 20 22 22 24
5 5 1 2 2 1 4 3 1 2 2 4 6 6 6 9 8 9 11 13 14 14 13 12 11 9 6 4 3 1 1 4 7 9 11 13 16 17 17 17 17 19 24 25
6 2 3 3 5 3 3 2 3 1 2 1 4 3 5 9 9 9 14 15 13 12 12 11 9 7 6 5 6 6 6 9 8 10 13 14 13 14 17 20 20 20 22 25
2 4 3 3 3 4 4 3 7 2 2 2 2 1 5 9 10 17 16 12 11 10 9 7 6 5 4 4 5 8 10 11 12 14 17 15 13 16 17 18 20 24 27 27
6 3 4 3 1 1 3 3 3 4 3 3 1 2 4 8 7 10 15 13 11 9 7 5 2 3 5 6 7 9 10 12 14 18 19 18 16 17 19 21 26 26 28 29
3 3 3 2 4 2 4 4 5 4 2 3 2 6 6 7 7 9 10 12 12 9 6 2 0 3 7 8 9 11 13 13 15 17 15 16 17 18 22 27 26 28 30 30
3 3 5 6 4 4 4 5 7 7 6 3 3 4 9 9 10 17 16 11 11 10 7 2 4 7 9 10 12 13 14 16 14 13 15 16 19 24 26 27 29 30 30 29
2 2 2 3 4 1 3 5 6 6 6 6 6 5 7 11 10 8 11 10 7 5 5 2 5 8 10 12 13 14 10 10 11 13 16 20 22 22 25 29 30 30 30 31
3 1 1 2 1 4 6 2 8 5 4 1 5 3 5 4 4 6 6 8 5 4 2 4 7 10 12 13 14 13 11 13 14 16 17 20 21 24 27 29 29 29 31 30
2 2 1 2 3 2 2 4 6 2 3 5 5 5 2 3 3 3 4 4 8 4 1 6 8 11 13 14 12 12 14 15 15 17 19 20 23 28 28 28 29 30 30 30
4 2 2 1 3 2 3 3 1 2 2 6 4 7 5 4 3 3 8 8 4 1 4 6 9 12 12 13 12 14 16 17 16 18 19 23 28 28 28 28 29 31 31 26
4 3 1 2 1 4 2 5 2 3 2 2 4 7 8 10 2 3 8 5 2 2 5 8 12 12 11 13 15 16 17 18 17 19 23 27 27 26 26 28 30 29 25 31
2 1 4 4 3 6 5 8 4 2 5 7 5 6 9 5 4 12 6 3 1 3 6 10 10 12 13 14 15 17 18 17 19 23 26 25 25 24 26 28 27 26 32 33
5 4 3 2 2 6 14 5 4 4 6 6 3 5 9 13 10 8 5 1 2 5 8 10 11 13 15 15 16 17 18 20 21 24 24 25 23 25 26 24 27 34 29 27
2 2 2 6 4 6 18 2 8 7 6 5 7 8 10 10 8 5 2 1 4 6 9 11 14 15 15 16 16 20 21 21 22 24 24 23 25 25 22 26 33 29 24 28
3 4 1 3 3 9 13 14 7 5 4 6 7 10 10 10 8 4 1 2 6 8 12 14 15 17 18 19 19 20 20 20 22 25 23 24 23 22 25 31 26 25 26 30
3 8 6 5 6 7 10 14 13 10 7 10 10 9 10 9 6 3 0 4 8 11 14 15 18 18 19 20 22 19 19 21 24 23 24 22 22 24 30 28 24 25 26 27
10 6 5 4 2 5 5 9 11 13 11 12 12 11 9 7 4 0 3 7 11 14 18 17 17 18 22 21 20 20 19 21 22 23 22 21 24 25 30 26 28 26 26 26
Wind_Direction
196 205 204 192 203 226 220 186 219 121 124 166 199 243 311 308 230 219 239 269 279 202 198 194 183 181 187 184 188 182 180 189 189 183 199 196 209 228 240 234 249 252 267 297
185 209 207 219 209 218 237 209 188 90 176 146 146 232 243 264 15 45 9 323 279 268 182 183 179 181 191 188 189 190 186 190 204 197 211 202 268 250 271 274 272 277 281 283
191 204 234 213 214 208 223 252 202 162 155 214 126 294 251 144 129 118 45 353 299 276 195 180 178 185 194 195 193 194 198 203 211 225 200 218 217 225 238 262 280 283 281 286
220 0 210 212 171 214 213 207 228 135 153 230 151 267 246 156 160 135 61 28 329 289 253 183 181 185 195 200 204 197 208 220 222 231 229 242 248 261 277 298 273 266 261 285
187 173 203 187 193 203 101 86 174 197 200 257 196 251 355 140 150 95 78 41 338 279 231 177 176 183 194 201 209 210 209 220 238 239 254 257 252 253 256 262 267 267 280 285
54 58 146 163 64 32 130 145 106 98 247 252 239 192 305 124 82 87 85 66 48 65 150 156 169 178 190 205 209 217 214 218 234 244 249 258 271 267 258 257 271 277 275 267
153 90 54 141 95 68 230 157 157 190 179 239 88 115 116 106 88 105 105 87 86 97 115 128 140 156 173 194 211 226 235 230 231 246 259 263 261 270 272 266 262 261 259 260
196 157 166 181 5 185 204 253 260 259 164 131 189 228 141 113 120 111 107 108 101 105 114 112 147 180 208 227 245 260 256 267 274 256 254 252 258 260 270 264 255 261 271 281
192 93 72 20 12 352 150 212 2 343 295 333 182 91 102 138 139 131 114 112 108 107 111 118 131 149 162 180 197 212 228 240 242 246 258 264 270 279 291 278 276 283 287 288
314 116 26 101 276 82 19 342 117 229 240 223 240 144 144 160 150 135 129 125 123 124 122 118 115 111 109 106 91 29 261 251 274 268 255 249 250 256 264 278 282 278 285 296
306 205 132 159 211 147 148 213 243 323 257 6 336 71 114 160 153 148 137 143 139 128 119 114 105 83 66 28 351 336 313 301 282 271 269 271 277 274 270 278 289 295 291 289
86 304 131 87 53 11 333 294 191 174 204 219 124 180 349 108 136 139 141 138 135 136 132 125 113 94 70 18 334 321 320 312 296 284 292 295 286 283 286 286 287 287 292 292
349 273 122 155 150 63 259 202 298 34 68 273 3 171 89 109 125 137 141 155 154 150 147 137 132 46 1 341 331 321 316 307 295 290 289 292 285 289 298 293 294 296 297 298
342 311 354 47 57 75 179 193 193 198 180 242 219 146 158 166 167 156 158 162 168 170 171 165 72 336 331 324 316 301 298 289 286 284 292 295 304 300 293 297 300 301 303 302
355 314 13 85 40 352 9 161 187 222 244 264 271 39 170 187 186 183 178 181 187 175 187 126 356 333 322 314 312 308 299 300 292 292 302 306 296 295 303 305 306 308 307 305
118 335 326 241 134 256 268 249 249 226 245 286 308 316 60 59 108 120 149 174 190 213 127 35 335 316 310 307 307 301 311 301 300 297 295 294 300 308 304 304 304 306 306 304
186 235 275 109 189 288 268 264 217 213 212 323 252 109 109 83 120 141 177 164 179 152 60 336 312 307 312 311 306 306 300 292 294 302 305 307 310 303 302 304 308 308 307 310
252 260 27 271 340 252 135 35 344 165 132 169 122 141 76 88 147 147 139 132 130 138 305 308 307 308 310 306 304 294 294 306 309 305 307 310 300 303 308 311 311 313 312 312
333 291 154 132 234 319 156 200 148 169 179 193 218 131 160 113 91 150 160 139 109 93 279 291 296 305 308 312 310 301 302 310 310 310 306 297 307 311 311 314 315 314 315 309
284 323 63 121 125 229 122 134 114 64 266 341 166 151 166 143 207 145 120 116 147 274 305 308 309 322 313 308 301 302 306 308 312 305 299 308 310 313 316 315 313 317 310 311
171 162 196 218 204 286 116 136 120 127 221 162 161 169 176 132 122 148 139 148 243 308 313 321 328 319 319 311 306 304 304 306 304 300 304 313 318 318 312 312 318 306 304 314
166 152 201 225 153 267 133 117 197 169 127 146 140 131 110 139 141 148 157 173 334 331 336 335 329 321 318 318 314 308 305 303 301 301 310 318 318 311 315 317 307 305 318 321
231 202 184 160 216 144 177 125 158 153 158 157 162 163 173 158 152 163 179 349 329 327 329 326 324 326 323 319 311 305 305 303 300 304 313 316 312 319 318 308 307 322 327 325
240 120 196 48 197 179 198 216 221 179 150 170 182 184 171 157 161 168 160 321 329 326 320 316 316 316 318 318 319 314 309 302 297 306 314 314 319 318 307 311 328 331 326 324
95 130 199 242 243 180 220 219 217 202 190 178 172 174 160 167 172 166 349 334 323 312 314 314 312 313 312 309 312 312 305 300 302 309 314 317 317 316 311 324 335 328 322 325
182 191 171 220 199 174 100 196 198 195 186 176 166 160 174 170 156 179 312 309 310 308 309 317 317 310 305 309 314 314 308 302 304 311 318 319 314 313 320 333 330 331 330 330